Aérodrome :
LOGIN :

S'inscrire | Disclaimer

   EN    FR    IT 

 










Légende :    VFR   VFR Marginal   IFR   IFR Intensif   IFR Très Intensif
Visi : 
Plafond : 
>= 8 km
>= 3000ft
5 à 8 km
1000 à 3000 ft
1500m à 5 km
500 à 1000 ft
800 à 1500m
200 à 500 ft
< 800m
< 200 ft
Symboles :   Orages  Brouillard  Fortes neiges  Fortes précipitations  Vent > 20 kt
SIGMETs :   Divers  Orages  Givrage  Turbulence  Onde Orograph.  Cendres Volcan.






- Altitude de l'aérodrome : 1197 ft
- Code IATA : SPM


ETAD - Spangdahlem Ab

DERNIER METAR :
  • 220956Z 09008KT 9999 CLR 09/M02 A3022 RMK AO2A SLP229 T00891018 $

METARs EXPIRÉS :
  • 220856Z 05008KT 9999 CLR 07/M02 A3022 RMK AO2A SLP231 T00681019 51012 $

TAF AMD TAF ETAD
Valide du 22 à 05h jusqu'au 23 à 10h UTC


220520Z 2205/2310 04009KT 9999 SCT020 QNH3015INS
BECMG 2207/2208 03010G15KT 9999 SKC QNH3020INS
BECMG 2219/2220 03007KT 9999 FEW025 QNH3027INS TX13/2214Z TN01/2304Z



MET'MAP, la Météo Aéronautique d'un coup d'oeil ! - Copyright ORBIFLY Décembre 2007 - Disclaimer

ORBIFLY MET'MAP TEAM :

Programmation & Développement : Alexandra Zaïnal
Sur une idée originale de : Baudouin d'Aumeries
Assistance à la programmation : Marc-Olivier Méhu
Soutien technique & logistique : Manuel Goepfert

Contact : metmap@orbifly.com




SOURCES & CREDITS :

   NOAA